| time (UTC) | temp C | wind direction | speed KPH | gust KPH | rain 1hr cm | rain 24hr cm | rain mn cm | humidity % | barometer mb |
| 20260506080924 | 11 | 0 | 9.7 | 24.1 | 0.00 | 0.00 | 0.00 | 1 | 1011.0 |
| 20260506072829 | 11 | 13 | 11.3 | 20.9 | 0.00 | 0.00 | 0.00 | 1 | 1010.8 |
| 20260506071844 | 10 | 10 | 12.9 | 24.1 | 0.00 | 0.00 | 0.00 | 1 | 1010.8 |
| 20260506070822 | 10 | 5 | 9.7 | 24.1 | 0.00 | 0.00 | 0.00 | 1 | 1010.7 |
| 20260506061548 | 10 | 350 | 9.7 | 19.3 | 0.00 | 0.00 | 0.00 | 1 | 1010.5 |
| 20260506060547 | 10 | 350 | 11.3 | 25.7 | 0.00 | 0.00 | 0.00 | 1 | 1010.5 |
| 20260506050354 | 10 | 28 | 11.3 | 24.1 | 0.00 | 0.00 | 0.00 | 1 | 1010.5 |
| 20260506044413 | 10 | 5 | 9.7 | 22.5 | 0.00 | 0.00 | 0.00 | 1 | 1010.5 |
| 20260506042248 | 10 | 13 | 11.3 | 22.5 | 0.00 | 0.00 | 0.00 | 1 | 1010.4 |
| 20260506041254 | 10 | 24 | 11.3 | 22.5 | 0.00 | 0.00 | 0.00 | 1 | 1010.4 |
| 20260506040253 | 10 | 17 | 8.0 | 17.7 | 0.00 | 0.00 | 0.00 | 1 | 1010.5 |
| 20260506035250 | 10 | 41 | 9.7 | 22.5 | 0.00 | 0.00 | 0.00 | 1 | 1010.5 |
| 20260506034224 | 10 | 28 | 9.7 | 22.5 | 0.00 | 0.00 | 0.00 | 1 | 1010.6 |
| 20260506033151 | 10 | 19 | 8.0 | 20.9 | 0.00 | 0.00 | 0.00 | 1 | 1010.7 |
| 20260506032152 | 10 | 33 | 9.7 | 22.5 | 0.00 | 0.00 | 0.00 | 1 | 1010.7 |
| 20260506031119 | 10 | 350 | 11.3 | 22.5 | 0.00 | 0.00 | 0.00 | 1 | 1010.7 |
| 20260506030107 | 10 | 5 | 9.7 | 22.5 | 0.00 | 0.00 | 0.00 | 1 | 1010.8 |
| 20260506025118 | 10 | 0 | 11.3 | 20.9 | 0.00 | 0.00 | 0.00 | 1 | 1010.9 |
| 20260506024107 | 10 | 5 | 8.0 | 20.9 | 0.00 | 0.00 | 0.00 | 1 | 1010.9 |
| 20260506023048 | 10 | 342 | 9.7 | 20.9 | 0.00 | 0.00 | 0.00 | 1 | 1011.0 |
| 20260506022018 | 10 | 26 | 11.3 | 20.9 | 0.00 | 0.00 | 0.00 | 1 | 1011.1 |
| 20260506021041 | 10 | 49 | 11.3 | 19.3 | 0.00 | 0.00 | 0.00 | 1 | 1011.0 |
| 20260506020007 | 11 | 41 | 8.0 | 20.9 | 0.00 | 0.00 | 0.00 | 1 | 1011.0 |
| 20260506013831 | 11 | 19 | 8.0 | 20.9 | 0.00 | 0.00 | 0.00 | 1 | 1011.0 |
| 20260506012819 | 11 | 19 | 9.7 | 22.5 | 0.00 | 0.00 | 0.00 | 1 | 1011.0 |
| 20260506011817 | 11 | 22 | 11.3 | 22.5 | 0.00 | 0.00 | 0.00 | 1 | 1011.0 |
| 20260506010743 | 11 | 53 | 11.3 | 22.5 | 0.00 | 0.00 | 0.00 | 1 | 1011.2 |
| 20260506004628 | 11 | 24 | 11.3 | 20.9 | 0.00 | 0.00 | 0.00 | 1 | 1011.2 |
| 20260506003607 | 11 | 26 | 11.3 | 20.9 | 0.00 | 0.00 | 0.00 | 1 | 1011.3 |
| 20260506002611 | 11 | 33 | 11.3 | 20.9 | 0.00 | 0.00 | 0.00 | 1 | 1011.3 |
| 20260506001627 | 11 | 19 | 11.3 | 20.9 | 0.00 | 0.00 | 0.00 | 1 | 1011.3 |
| 20260506000603 | 11 | 40 | 9.7 | 22.5 | 0.00 | 0.00 | 0.00 | 1 | 1011.4 |
| 20260505235609 | 11 | 55 | 12.9 | 29.0 | 0.00 | 0.00 | 0.00 | 1 | 1011.4 |
| 20260505234600 | 11 | 41 | 12.9 | 29.0 | 0.00 | 0.00 | 0.00 | 1 | 1011.4 |
| 20260505233619 | 11 | 65 | 12.9 | 27.4 | 0.00 | 0.00 | 0.00 | 1 | 1011.4 |
| 20260505232635 | 11 | 14 | 11.3 | 22.5 | 0.00 | 0.00 | 0.00 | 1 | 1011.4 |
| 20260505231639 | 11 | 5 | 11.3 | 27.4 | 0.00 | 0.00 | 0.00 | 1 | 1011.3 |
| 20260505230616 | 11 | 24 | 12.9 | 27.4 | 0.00 | 0.00 | 0.00 | 1 | 1011.3 |
| 20260505225541 | 11 | 75 | 12.9 | 24.1 | 0.00 | 0.00 | 0.00 | 1 | 1011.4 |
| 20260505223350 | 11 | 36 | 12.9 | 25.7 | 0.00 | 0.00 | 0.00 | 1 | 1011.5 |
| 20260505222346 | 11 | 72 | 14.5 | 27.4 | 0.00 | 0.00 | 0.00 | 1 | 1011.5 |
| 20260505221410 | 11 | 36 | 11.3 | 27.4 | 0.00 | 0.00 | 0.00 | 1 | 1011.5 |
| 20260505220343 | 11 | 59 | 11.3 | 24.1 | 0.00 | 0.00 | 0.00 | 1 | 1011.5 |
| 20260505214226 | 11 | 28 | 11.3 | 25.7 | 0.00 | 0.00 | 0.00 | 1 | 1011.4 |
| 20260505213234 | 11 | 57 | 8.0 | 22.5 | 0.00 | 0.00 | 0.00 | 1 | 1011.5 |
| 20260505212201 | 11 | 71 | 9.7 | 24.1 | 0.00 | 0.00 | 0.00 | 1 | 1011.5 |
| 20260505211149 | 11 | 34 | 9.7 | 24.1 | 0.00 | 0.00 | 0.00 | 1 | 1011.5 |
| 20260505204953 | 11 | 71 | 6.4 | 17.7 | 0.00 | 0.00 | 0.00 | 1 | 1011.4 |
| 20260505204000 | 11 | 56 | 6.4 | 16.1 | 0.00 | 0.00 | 0.00 | 1 | 1011.4 |
| 20260505202950 | 11 | 58 | 8.0 | 20.9 | 0.00 | 0.00 | 0.00 | 1 | 1011.4 |
| 20260505201914 | 11 | 60 | 9.7 | 20.9 | 0.00 | 0.00 | 0.00 | 1 | 1011.3 |
| 20260505200904 | 11 | 57 | 8.0 | 20.9 | 0.00 | 0.00 | 0.00 | 1 | 1011.2 |
| 20260505195900 | 11 | 70 | 8.0 | 20.9 | 0.00 | 0.00 | 0.00 | 1 | 1011.1 |
| 20260505194837 | 11 | 34 | 6.4 | 16.1 | 0.00 | 0.00 | 0.00 | 1 | 1010.9 |
| 20260505193810 | 11 | 69 | 6.4 | 16.1 | 0.00 | 0.00 | 0.00 | 1 | 1010.9 |
| 20260505192758 | 12 | 58 | 6.4 | 14.5 | 0.00 | 0.00 | 0.00 | 1 | 1010.8 |
| 20260505191801 | 12 | 54 | 6.4 | 16.1 | 0.00 | 0.00 | 0.00 | 1 | 1010.7 |
| 20260505190742 | 12 | 67 | 6.4 | 19.3 | 0.00 | 0.00 | 0.00 | 1 | 1010.7 |
| 20260505185745 | 12 | 52 | 6.4 | 19.3 | 0.00 | 0.00 | 0.00 | 1 | 1010.6 |
| 20260505184724 | 12 | 42 | 8.0 | 19.3 | 0.00 | 0.00 | 0.00 | 1 | 1010.5 |
| 20260505183700 | 12 | 45 | 8.0 | 19.3 | 0.00 | 0.00 | 0.00 | 1 | 1010.5 |
| 20260505182723 | 13 | 22 | 6.4 | 19.3 | 0.00 | 0.00 | 0.00 | 3 | 1010.5 |
| 20260505181707 | 13 | 62 | 6.4 | 16.1 | 0.00 | 0.00 | 0.00 | 6 | 1010.5 |
| 20260505180714 | 13 | 79 | 6.4 | 17.7 | 0.00 | 0.00 | 0.00 | 5 | 1010.5 |
| 20260505175643 | 13 | 54 | 6.4 | 17.7 | 0.00 | 0.00 | 0.00 | 5 | 1010.5 |
| 20260505173438 | 13 | 82 | 6.4 | 16.1 | 0.00 | 0.00 | 0.00 | 1 | 1010.5 |
| 20260505172412 | 13 | 53 | 6.4 | 17.7 | 0.00 | 0.00 | 0.00 | 5 | 1010.4 |
| 20260505170230 | 13 | 32 | 6.4 | 17.7 | 0.00 | 0.00 | 0.00 | 14 | 1010.5 |
| 20260505165244 | 13 | 46 | 8.0 | 17.7 | 0.00 | 0.00 | 0.00 | 19 | 1010.5 |
| 20260505164212 | 13 | 64 | 8.0 | 16.1 | 0.00 | 0.00 | 0.00 | 14 | 1010.6 |
| 20260505163157 | 13 | 35 | 6.4 | 20.9 | 0.00 | 0.00 | 0.00 | 12 | 1010.5 |
| 20260505162204 | 13 | 78 | 9.7 | 20.9 | 0.00 | 0.00 | 0.00 | 17 | 1010.4 |
| 20260505161132 | 13 | 78 | 8.0 | 20.9 | 0.00 | 0.00 | 0.00 | 13 | 1010.5 |
| 20260505152709 | 13 | 71 | 8.0 | 19.3 | 0.00 | 0.00 | 0.00 | 1 | 1010.8 |
| 20260505151714 | 13 | 44 | 8.0 | 19.3 | 0.00 | 0.00 | 0.00 | 1 | 1010.8 |
| 20260505150642 | 13 | 51 | 8.0 | 19.3 | 0.00 | 0.00 | 0.00 | 1 | 1010.9 |
| 20260505140621 | 13 | 83 | 9.7 | 22.5 | 0.00 | 0.00 | 0.00 | 1 | 1011.3 |
| 20260505130309 | 13 | 23 | 9.7 | 20.9 | 0.00 | 0.00 | 0.00 | 1 | 1011.3 |
| 20260505124217 | 13 | 78 | 8.0 | 19.3 | 0.00 | 0.00 | 0.00 | 1 | 1011.3 |
| 20260505123230 | 13 | 58 | 9.7 | 19.3 | 0.00 | 0.00 | 0.00 | 1 | 1011.4 |
| 20260505121041 | 13 | 76 | 9.7 | 19.3 | 0.00 | 0.00 | 0.00 | 1 | 1011.3 |
| 20260505120041 | 13 | 71 | 11.3 | 22.5 | 0.00 | 0.00 | 0.00 | 1 | 1011.4 |
| 20260505115105 | 14 | 79 | 9.7 | 22.5 | 0.00 | 0.00 | 0.00 | 1 | 1011.5 |
| 20260505114115 | 13 | 34 | 8.0 | 20.9 | 0.00 | 0.00 | 0.00 | 1 | 1011.5 |
| 20260505113123 | 13 | 74 | 9.7 | 20.9 | 0.00 | 0.00 | 0.00 | 1 | 1011.6 |
| 20260505112101 | 13 | 68 | 9.7 | 19.3 | 0.00 | 0.00 | 0.00 | 1 | 1011.5 |
| 20260505111105 | 13 | 30 | 9.7 | 22.5 | 0.00 | 0.00 | 0.00 | 1 | 1011.6 |
| 20260505110116 | 13 | 50 | 9.7 | 22.5 | 0.00 | 0.00 | 0.00 | 1 | 1011.6 |
| 20260505101930 | 12 | 28 | 9.7 | 17.7 | 0.00 | 0.00 | 0.00 | 1 | 1011.9 |
| 20260505100937 | 13 | 51 | 9.7 | 17.7 | 0.00 | 0.00 | 0.00 | 1 | 1011.9 |
| 20260505100544 | 13 | 27 | 9.7 | 19.3 | 0.00 | 0.00 | 0.00 | 1 | 1012.0 |
| 20260505095542 | 13 | 15 | 9.7 | 19.3 | 0.00 | 0.00 | 0.00 | 1 | 1012.0 |
| 20260505094549 | 13 | 33 | 8.0 | 19.3 | 0.00 | 0.00 | 0.00 | 1 | 1012.0 |
| 20260505092443 | 13 | 55 | 8.0 | 19.3 | 0.00 | 0.00 | 0.00 | 1 | 1012.1 |
| 20260505091455 | 13 | 40 | 9.7 | 19.3 | 0.00 | 0.00 | 0.00 | 1 | 1012.0 |
| 20260505090511 | 12 | 38 | 9.7 | 17.7 | 0.00 | 0.00 | 0.00 | 1 | 1012.0 |
| 20260505085535 | 12 | 56 | 8.0 | 19.3 | 0.00 | 0.00 | 0.00 | 1 | 1012.0 |
| 20260505084525 | 12 | 48 | 8.0 | 19.3 | 0.00 | 0.00 | 0.00 | 1 | 1012.1 |
| 20260505083456 | 12 | 35 | 9.7 | 16.1 | 0.00 | 0.00 | 0.00 | 1 | 1012.1 |
| 20260505082444 | 12 | 23 | 8.0 | 17.7 | 0.00 | 0.00 | 0.00 | 1 | 1011.9 |
| 20260505081416 | 12 | 11 | 9.7 | 20.9 | 0.00 | 0.00 | 0.00 | 1 | 1011.9 |